This is the latest recevied weather packets stored in our database for station/object K5OBH. If no packets are shown the sender has not sent any weather packets the latest 10 day(s).
| Time | Temp. | Humidity | Pressure | Rain* | Wind** | Luminosity | Snow |
|---|---|---|---|---|---|---|---|
| 1778114112 | 16.67° C | 53% | 1016 hPa | 0 mm | - | 42 W/m² | - |
| 1778113808 | 16.67° C | 53% | 1016.2 hPa | 0 mm | - | 38 W/m² | - |
| 1778113505 | 17.22° C | 52% | 1016.1 hPa | 0 mm | - | 49 W/m² | - |
| 1778113201 | 17.22° C | 52% | 1016 hPa | 0 mm | - | 63 W/m² | - |
| 1778112897 | 17.22° C | 52% | 1016.3 hPa | 0 mm | - | 73 W/m² | - |
| 1778112595 | 17.22° C | 52% | 1016 hPa | 0 mm | - | 73 W/m² | - |
| 1778112290 | 17.22° C | 52% | 1015.8 hPa | 0 mm | - | 90 W/m² | - |
| 1778111986 | 17.78° C | 51% | 1016 hPa | 0 mm | - | 55 W/m² | - |
| 1778111684 | 17.78° C | 51% | 1015.9 hPa | 0 mm | - | 107 W/m² | - |
| 1778111379 | 17.78° C | 51% | 1015.9 hPa | 0 mm | - | 122 W/m² | - |
| 1778111078 | 17.78° C | 51% | 1015.8 hPa | 0 mm | - | 126 W/m² | - |
| 1778110775 | 17.78° C | 51% | 1015.8 hPa | 0 mm | - | 79 W/m² | - |
| 1778110471 | 17.78° C | 51% | 1015.9 hPa | 0 mm | - | 79 W/m² | - |
| 1778110168 | 17.78° C | 51% | 1015.7 hPa | 0 mm | - | 162 W/m² | - |
| 1778109864 | 17.78° C | 50% | 1015.6 hPa | 0 mm | - | 174 W/m² | - |
| 1778109560 | 17.78° C | 50% | 1015.5 hPa | 0 mm | - | 193 W/m² | - |
| 1778109257 | 17.78° C | 51% | 1015.7 hPa | 0 mm | - | 96 W/m² | - |
| 1778108955 | 17.78° C | 50% | 1015.4 hPa | 0 mm | - | 221 W/m² | - |
| 1778108651 | 18.33° C | 52% | 1015.7 hPa | 0 mm | - | 225 W/m² | - |
| 1778108348 | 18.33° C | 51% | 1015.4 hPa | 0 mm | - | 244 W/m² | - |
| 1778108045 | 18.33° C | 50% | 1015.3 hPa | 0 mm | - | 255 W/m² | - |
| 1778107742 | 17.78° C | 51% | 1015.6 hPa | 0 mm | - | 269 W/m² | - |
| 1778107439 | 18.33° C | 52% | 1015.3 hPa | 0 mm | - | 282 W/m² | - |
| 1778107135 | 17.78° C | 52% | 1015.3 hPa | 0 mm | - | 298 W/m² | - |
| 1778106831 | 17.78° C | 52% | 1015.2 hPa | 0 mm | - | 311 W/m² | - |
* Rain latest hour (hover to see other rain measurements)
** Current wind speed in m/s (hover to see current wind gust speed)